Weather History for Coatesville, PA

Change the Weather History Date:

Monday, January 28, 2013

  Actual Average (KLNS) Record (KLNS)
Temperature  
Mean Temperature 32 °F -  
Max Temperature 37 °F 38 °F 63 °F (2002)
Min Temperature 28 °F 17 °F -6 °F (1987)
Degree Days  
Heating Degree Days 32    
Moisture  
Dew Point 30 °F    
Average Humidity 94    
Maximum Humidity 100    
Minimum Humidity 74    
Precipitation  
Precipitation 0.36 in - - ()
Sea Level Pressure  
Sea Level Pressure 30.23 in    
Wind  
Wind Speed 2 mph (SSW)    
Max Wind Speed 9 mph    
Max Gust Speed -    
Visibility 3 miles    
Events Fog , Rain , Snow    
Averages and records for this station are not official NWS values.
T = Trace of Precipitation, MM = Missing Value Source: NWS Daily Summary

Daily Weather History Graph

Daily Weather History Graph

Search for Another Location

Airport:

Trip Planner

Search our weather history database for the weather conditions in past years. The results will help you decide how hot, cold, wet, or windy it might be!

Date:

Astronomy

Jan. 28, 2013 Rise Set
Actual Time 7:15 AM EST 5:18 PM EST
Civil Twilight 6:46 AM EST 5:47 PM EST
Nautical Twilight 6:13 AM EST 6:19 PM EST
Astronomical Twilight 5:41 AM EST 6:51 PM EST
Moon 7:10 PM EST (1/28) 7:39 AM EST (1/28)
Length of Visible Light 11h 00m
Length of Day
10h 02m
Full, 98% of the Moon is Illuminated
Jan 28
Full
Feb 3
Last Quarter
Feb 10
New
Feb 17
First Quarter
Feb 25
Full

Hourly Weather History & Observations

Time (EST) Temp. Windchill Dew Point Humidity Pressure Visibility Wind Dir Wind Speed Gust Speed Precip Events Conditions
12:15 AM 28.4 °F - 21.2 °F 74% 30.49 in 10.0 mi Calm Calm - N/A   Clear
12:35 AM 28.4 °F - 21.2 °F 74% 30.48 in 10.0 mi Calm Calm - N/A   Clear
12:55 AM 28.4 °F - 21.2 °F 74% 30.48 in 10.0 mi Calm Calm - N/A   Clear
1:15 AM 28.4 °F - 21.2 °F 74% 30.47 in 10.0 mi Calm Calm - N/A   Clear
1:35 AM 28.4 °F - 21.2 °F 74% 30.46 in 10.0 mi Calm Calm - N/A   Clear
1:55 AM 28.4 °F - 21.2 °F 74% 30.45 in 9.0 mi Calm Calm - N/A   Clear
2:15 AM 28.4 °F - 21.2 °F 74% 30.45 in 9.0 mi Calm Calm - N/A   Clear
2:55 AM 28.4 °F - 21.2 °F 74% 30.44 in 10.0 mi Calm Calm - N/A   Clear
3:15 AM 30.2 °F - 23.0 °F 75% 30.43 in 10.0 mi Calm Calm - N/A   Clear
3:55 AM 28.4 °F - 23.0 °F 80% 30.42 in 9.0 mi Calm Calm - N/A   Clear
4:15 AM 28.4 °F - 23.0 °F 80% 30.41 in 9.0 mi Calm Calm - N/A   Partly Cloudy
4:35 AM 30.2 °F - 23.0 °F 75% 30.40 in 6.0 mi Calm Calm - N/A Snow Light Snow
4:55 AM 30.2 °F - 24.8 °F 80% 30.39 in 4.0 mi Calm Calm - 0.01 in Snow Light Snow
5:15 AM 30.2 °F - 26.6 °F 86% 30.38 in 8.0 mi Calm Calm - N/A   Overcast
5:35 AM 30.2 °F - 26.6 °F 86% 30.39 in 7.0 mi Calm Calm - N/A   Scattered Clouds
5:55 AM 30.2 °F - 26.6 °F 86% 30.38 in 7.0 mi Calm Calm - N/A   Clear
6:15 AM 30.2 °F - 26.6 °F 86% 30.38 in 7.0 mi Calm Calm - N/A   Clear
6:35 AM 30.2 °F - 26.6 °F 86% 30.38 in 7.0 mi Calm Calm - N/A   Clear
7:15 AM 30.2 °F 25.4 °F 28.4 °F 93% 30.38 in 1.5 mi South 4.6 mph - 0.06 in Snow Light Snow
7:35 AM 30.2 °F 26.7 °F 30.2 °F 100% 30.38 in 0.8 mi South 3.5 mph - 0.16 in Snow Light Snow
7:55 AM 30.2 °F 24.3 °F 30.2 °F 100% 30.38 in 0.8 mi South 5.8 mph - 0.28 in Snow Light Snow
8:15 AM 30.2 °F 24.3 °F 30.2 °F 100% 30.38 in 1.2 mi South 5.8 mph - 0.03 in Snow Light Snow
8:35 AM 30.2 °F 25.4 °F 30.2 °F 100% 30.36 in 1.5 mi SSE 4.6 mph - 0.04 in   Overcast
8:55 AM 32.0 °F 26.4 °F 30.2 °F 93% 30.34 in 1.2 mi SSE 5.8 mph - 0.04 in   Overcast
9:15 AM 32.0 °F 26.4 °F 30.2 °F 93% 30.33 in 1.2 mi South 5.8 mph - N/A   Overcast
9:35 AM 32.0 °F 25.6 °F 32.0 °F 100% 30.33 in 1.5 mi South 6.9 mph - N/A   Overcast
9:55 AM 32.0 °F 24.2 °F 32.0 °F 100% 30.32 in 2.0 mi South 9.2 mph - N/A   Overcast
10:15 AM 32.0 °F 24.8 °F 32.0 °F 100% 30.33 in 2.5 mi South 8.1 mph - N/A   Overcast
10:35 AM 32.0 °F 26.4 °F 32.0 °F 100% 30.31 in 1.5 mi South 5.8 mph - N/A   Overcast
10:55 AM 32.0 °F 27.5 °F 32.0 °F 100% 30.30 in 1.8 mi South 4.6 mph - N/A   Overcast
11:15 AM 32.0 °F 25.6 °F 32.0 °F 100% 30.27 in 1.5 mi South 6.9 mph - N/A   Overcast
11:35 AM 32.0 °F 26.4 °F 32.0 °F 100% 30.26 in 2.0 mi South 5.8 mph - N/A   Overcast
11:55 AM 32.0 °F 26.4 °F 32.0 °F 100% 30.25 in 3.0 mi SSW 5.8 mph - N/A   Overcast
12:15 PM 32.0 °F 25.6 °F 32.0 °F 100% 30.23 in 1.8 mi South 6.9 mph - N/A Rain Rain
12:35 PM 32.0 °F 27.5 °F 32.0 °F 100% 30.21 in 1.5 mi SSW 4.6 mph - 0.02 in Rain Light Rain
12:55 PM 32.0 °F 26.4 °F 32.0 °F 100% 30.20 in 1.5 mi SSW 5.8 mph - 0.02 in   Overcast
1:15 PM 32.0 °F 26.4 °F 32.0 °F 100% 30.16 in 1.0 mi South 5.8 mph - N/A Rain Light Rain
1:35 PM 32.0 °F 26.4 °F 32.0 °F 100% 30.16 in 1.2 mi South 5.8 mph - N/A   Overcast
1:55 PM 32.0 °F 26.4 °F 32.0 °F 100% 30.15 in 1.2 mi SW 5.8 mph - N/A   Overcast
2:15 PM 32.0 °F 28.7 °F 32.0 °F 100% 30.13 in 0.8 mi SSW 3.5 mph - N/A   Overcast
2:35 PM 32.0 °F 27.5 °F 32.0 °F 100% 30.13 in 0.2 mi South 4.6 mph - N/A   Overcast
2:55 PM 33.8 °F 29.6 °F 32.0 °F 93% 30.13 in 0.2 mi SW 4.6 mph - N/A   Overcast
3:15 PM 33.8 °F 30.8 °F 33.8 °F 100% 30.12 in 0.2 mi SSW 3.5 mph - N/A Rain Light Rain
3:35 PM 33.8 °F 30.8 °F 33.8 °F 100% 30.12 in 0.2 mi SSW 3.5 mph - N/A Rain Light Rain
3:55 PM 33.8 °F 30.8 °F 33.8 °F 100% 30.10 in 0.2 mi SW 3.5 mph - N/A Rain Light Rain
4:15 PM 33.8 °F - 33.8 °F 100% 30.10 in 0.2 mi Calm Calm - N/A Rain Light Rain
4:35 PM 33.8 °F 30.8 °F 33.8 °F 100% 30.10 in 0.2 mi SW 3.5 mph - N/A Fog Fog
5:15 PM 33.8 °F 30.8 °F 33.8 °F 100% 30.10 in 0.2 mi SW 3.5 mph - N/A Fog Fog
5:35 PM 33.8 °F 30.8 °F 33.8 °F 100% 30.09 in 0.2 mi SW 3.5 mph - N/A Fog Fog
5:55 PM 33.8 °F 30.8 °F 33.8 °F 100% 30.09 in 0.2 mi SW 3.5 mph - N/A Fog Fog
6:15 PM 33.8 °F 30.8 °F 33.8 °F 100% 30.08 in 0.2 mi SW 3.5 mph - N/A Fog Fog
6:35 PM 33.8 °F 29.6 °F 33.8 °F 100% 30.08 in 0.2 mi SW 4.6 mph - N/A Fog Fog
6:55 PM 33.8 °F 29.6 °F 33.8 °F 100% 30.08 in 0.2 mi SW 4.6 mph - N/A   Overcast
7:15 PM 33.8 °F 29.6 °F 33.8 °F 100% 30.08 in 0.2 mi WSW 4.6 mph - 0.01 in   Overcast
7:35 PM 33.8 °F 28.6 °F 33.8 °F 100% 30.08 in 0.5 mi SW 5.8 mph - 0.01 in Rain Light Rain
7:55 PM 33.8 °F 29.6 °F 33.8 °F 100% 30.08 in 0.5 mi West 4.6 mph - 0.01 in Fog Fog
8:15 PM 33.8 °F 30.8 °F 33.8 °F 100% 30.07 in 1.0 mi WSW 3.5 mph - N/A   Overcast
8:35 PM 33.8 °F 29.6 °F 33.8 °F 100% 30.05 in 1.0 mi WSW 4.6 mph - N/A   Overcast
8:55 PM 35.6 °F 31.7 °F 35.6 °F 100% 30.05 in 1.0 mi WSW 4.6 mph - N/A   Overcast
9:15 PM 35.6 °F 30.7 °F 35.6 °F 100% 30.05 in 1.0 mi WSW 5.8 mph - N/A   Overcast
9:35 PM 35.6 °F 32.8 °F 35.6 °F 100% 30.05 in 1.0 mi West 3.5 mph - N/A   Overcast
9:55 PM 35.6 °F 31.7 °F 35.6 °F 100% 30.05 in 1.0 mi WSW 4.6 mph - N/A   Overcast
10:15 PM 35.6 °F - 35.6 °F 100% 30.04 in 1.2 mi Calm Calm - N/A   Overcast
10:35 PM 35.6 °F - 35.6 °F 100% 30.04 in 1.5 mi Calm Calm - N/A   Overcast
10:55 PM 35.6 °F 32.8 °F 35.6 °F 100% 30.05 in 1.2 mi WSW 3.5 mph - N/A   Overcast
11:15 PM 35.6 °F 31.7 °F 35.6 °F 100% 30.04 in 1.5 mi WSW 4.6 mph - N/A   Overcast
11:35 PM 37.4 °F 32.8 °F 35.6 °F 93% 30.04 in 1.5 mi WSW 5.8 mph - N/A   Overcast
11:55 PM 37.4 °F 33.8 °F 35.6 °F 93% 30.04 in 1.5 mi WSW 4.6 mph - N/A   Overcast